• în România
  • Lista ţărilor
  • Pe 7 zile
  • Temperatura apei
  • Hartă satelitară
  • Meteo pe hartă
  • Widget-uri
  • user-avatar
    Intrare

    Meteo pe oră la Larne

    Astăzi, 17 Februarie, Sâmbătă

    Timp Temperatura Precipitaţii Vânt Presiune Umiditate
    00:00 +3°C° 0,7 mm 6 m/s 757 mmHg 94%
    01:00 +3°C° 0,2 mm 6 m/s 757 mmHg 95%
    02:00 +2°C° 0,2 mm 5 m/s 757 mmHg 95%
    03:00 +3°C° 0,2 mm 4 m/s 756 mmHg 96%
    04:00 +1°C° 0 mm 4 m/s 757 mmHg 95%
    05:00 +1°C° 0 mm 4 m/s 757 mmHg 95%
    06:00 0°C° 0 mm 4 m/s 757 mmHg 95%
    07:00 +1°C° 0 mm 4 m/s 758 mmHg 95%
    08:00 +1°C° 0 mm 4 m/s 758 mmHg 94%
    09:00 +1°C° 0 mm 4 m/s 758 mmHg 94%
    10:00 +3°C° 0 mm 4 m/s 758 mmHg 90%
    11:00 +4°C° 0 mm 4 m/s 759 mmHg 87%
    12:00 +5°C° 0 mm 4 m/s 759 mmHg 83%
    13:00 +6°C° 0 mm 4 m/s 759 mmHg 81%
    14:00 +6°C° 0 mm 4 m/s 759 mmHg 80%
    15:00 +7°C° 0 mm 3 m/s 759 mmHg 78%
    16:00 +5°C° 0 mm 3 m/s 759 mmHg 82%
    17:00 +4°C° 0 mm 3 m/s 759 mmHg 86%
    18:00 +3°C° 0 mm 3 m/s 760 mmHg 90%
    19:00 +4°C° 0 mm 2 m/s 760 mmHg 91%
    20:00 +4°C° 0 mm 2 m/s 760 mmHg 91%
    21:00 +3°C° 0 mm 2 m/s 760 mmHg 92%
    22:00 +3°C° 0 mm 2 m/s 760 mmHg 92%
    23:00 +3°C° 0 mm 2 m/s 760 mmHg 92%

    Mâine, 18 Februarie, Duminică

    Timp Temperatura Precipitaţii Vânt Presiune Umiditate
    00:00 +3°C° 0 mm 2 m/s 760 mmHg 92%
    01:00 +2°C° 0 mm 2 m/s 760 mmHg 92%
    02:00 +2°C° 0 mm 2 m/s 760 mmHg 92%
    03:00 +2°C° 0 mm 2 m/s 760 mmHg 92%
    04:00 +3°C° 0 mm 2 m/s 760 mmHg 93%
    05:00 +3°C° 0 mm 2 m/s 759 mmHg 93%
    06:00 +2°C° 0 mm 3 m/s 759 mmHg 94%
    07:00 +3°C° 0 mm 3 m/s 759 mmHg 94%
    08:00 +4°C° 0 mm 3 m/s 759 mmHg 94%
    09:00 +5°C° 0 mm 4 m/s 759 mmHg 95%
    10:00 +5°C° 0,1 mm 4 m/s 759 mmHg 94%
    11:00 +6°C° 0,1 mm 4 m/s 759 mmHg 94%
    12:00 +7°C° 0,1 mm 5 m/s 759 mmHg 94%
    13:00 +7°C° 0,1 mm 5 m/s 758 mmHg 95%
    14:00 +7°C° 0,1 mm 4 m/s 758 mmHg 95%
    15:00 +7°C° 0,1 mm 4 m/s 758 mmHg 96%
    16:00 +7°C° 0,3 mm 4 m/s 758 mmHg 97%
    17:00 +7°C° 0,3 mm 4 m/s 758 mmHg 97%
    18:00 +8°C° 0,3 mm 3 m/s 758 mmHg 98%
    19:00 +8°C° 0,2 mm 3 m/s 758 mmHg 97%
    20:00 +8°C° 0,2 mm 3 m/s 758 mmHg 97%
    21:00 +8°C° 0,2 mm 3 m/s 758 mmHg 97%
    22:00 +8°C° 0,1 mm 3 m/s 759 mmHg 97%
    23:00 +8°C° 0,1 mm 3 m/s 759 mmHg 97%

    Poimâine, 19 Februarie, Luni

    Timp Temperatura Precipitaţii Vânt Presiune Umiditate
    00:00 +8°C° 0,1 mm 3 m/s 759 mmHg 97%
    01:00 +8°C° 0 mm 3 m/s 759 mmHg 97%
    02:00 +8°C° 0 mm 3 m/s 759 mmHg 97%
    03:00 +8°C° 0 mm 3 m/s 759 mmHg 97%
    04:00 +8°C° 0 mm 3 m/s 759 mmHg 97%
    05:00 +8°C° 0 mm 3 m/s 759 mmHg 97%
    06:00 +8°C° 0 mm 3 m/s 759 mmHg 97%
    07:00 +8°C° 0 mm 3 m/s 759 mmHg 96%
    08:00 +8°C° 0 mm 3 m/s 759 mmHg 96%
    09:00 +8°C° 0 mm 3 m/s 760 mmHg 96%
    10:00 +9°C° 0 mm 3 m/s 760 mmHg 93%
    11:00 +10°C° 0 mm 3 m/s 760 mmHg 89%
    12:00 +11°C° 0 mm 3 m/s 760 mmHg 86%
    13:00 +11°C° 0 mm 3 m/s 760 mmHg 85%
    14:00 +12°C° 0 mm 3 m/s 760 mmHg 84%
    15:00 +12°C° 0 mm 3 m/s 760 mmHg 84%
    16:00 +11°C° 0,1 mm 3 m/s 760 mmHg 87%
    17:00 +10°C° 0,1 mm 4 m/s 760 mmHg 90%
    18:00 +8°C° 0,1 mm 4 m/s 760 mmHg 93%
    19:00 +7°C° 0,3 mm 5 m/s 761 mmHg 92%
    20:00 +5°C° 0,3 mm 6 m/s 761 mmHg 90%
    21:00 +5°C° 0,3 mm 6 m/s 762 mmHg 89%
    22:00 +4°C° 0 mm 6 m/s 762 mmHg 89%
    23:00 +4°C° 0 mm 6 m/s 763 mmHg 90%

    20 Februarie, Marţi

    Timp Temperatura Precipitaţii Vânt Presiune Umiditate
    00:00 +4°C° 0 mm 6 m/s 763 mmHg 90%
    01:00 +4°C° 0 mm 6 m/s 763 mmHg 90%
    02:00 +3°C° 0 mm 6 m/s 764 mmHg 90%
    03:00 +3°C° 0 mm 6 m/s 764 mmHg 90%
    04:00 +3°C° 0 mm 6 m/s 765 mmHg 89%
    05:00 +3°C° 0 mm 6 m/s 765 mmHg 88%
    06:00 +3°C° 0 mm 6 m/s 766 mmHg 87%
    07:00 +3°C° 0 mm 6 m/s 766 mmHg 86%
    08:00 +3°C° 0 mm 6 m/s 767 mmHg 85%
    09:00 +3°C° 0 mm 5 m/s 767 mmHg 84%
    10:00 +5°C° 0 mm 5 m/s 768 mmHg 80%
    11:00 +5°C° 0 mm 6 m/s 768 mmHg 76%
    12:00 +7°C° 0 mm 6 m/s 768 mmHg 72%
    13:00 +7°C° 0 mm 5 m/s 768 mmHg 71%
    14:00 +7°C° 0 mm 5 m/s 768 mmHg 71%
    15:00 +7°C° 0 mm 5 m/s 768 mmHg 70%
    16:00 +6°C° 0 mm 5 m/s 769 mmHg 75%
    17:00 +5°C° 0 mm 4 m/s 769 mmHg 81%
    18:00 +4°C° 0 mm 4 m/s 769 mmHg 86%
    19:00 +3°C° 0 mm 4 m/s 769 mmHg 87%
    20:00 +3°C° 0 mm 3 m/s 769 mmHg 88%
    21:00 +3°C° 0 mm 3 m/s 770 mmHg 89%
    22:00 +2°C° 0 mm 3 m/s 770 mmHg 89%
    23:00 +2°C° 0 mm 3 m/s 770 mmHg 89%

    21 Februarie, Miercuri

    Timp Temperatura Precipitaţii Vânt Presiune Umiditate
    00:00 +2°C° 0 mm 3 m/s 770 mmHg 89%
    01:00 +3°C° 0 mm 2 m/s 770 mmHg 90%
    02:00 +3°C° 0 mm 2 m/s 770 mmHg 90%
    03:00 +2°C° 0 mm 2 m/s 769 mmHg 90%
    04:00 +2°C° 0 mm 2 m/s 769 mmHg 90%
    05:00 +2°C° 0 mm 2 m/s 769 mmHg 90%
    06:00 +2°C° 0 mm 2 m/s 769 mmHg 91%
    07:00 +3°C° 0 mm 2 m/s 769 mmHg 89%
    08:00 +3°C° 0 mm 2 m/s 769 mmHg 87%
    09:00 +3°C° 0 mm 3 m/s 769 mmHg 86%
    10:00 +4°C° 0 mm 3 m/s 769 mmHg 81%
    11:00 +5°C° 0 mm 3 m/s 768 mmHg 75%
    12:00 +7°C° 0 mm 3 m/s 768 mmHg 70%
    13:00 +7°C° 0 mm 3 m/s 768 mmHg 70%
    14:00 +7°C° 0 mm 3 m/s 767 mmHg 69%
    15:00 +7°C° 0 mm 3 m/s 767 mmHg 69%
    16:00 +5°C° 0 mm 3 m/s 767 mmHg 74%
    17:00 +4°C° 0 mm 3 m/s 767 mmHg 80%
    18:00 +2°C° 0 mm 3 m/s 767 mmHg 85%
    19:00 +2°C° 0 mm 3 m/s 767 mmHg 86%
    20:00 +1°C° 0 mm 4 m/s 767 mmHg 87%
    21:00 +1°C° 0 mm 4 m/s 767 mmHg 88%
    22:00 +1°C° 0 mm 4 m/s 767 mmHg 89%
    23:00 0°C° 0 mm 4 m/s 767 mmHg 89%

    22 Februarie, Joi

    Timp Temperatura Precipitaţii Vânt Presiune Umiditate
    00:00 0°C° 0 mm 4 m/s 767 mmHg 90%
    01:00 0°C° 0 mm 4 m/s 766 mmHg 90%
    02:00 0°C° 0 mm 4 m/s 766 mmHg 90%
    03:00 +1°C° 0 mm 4 m/s 766 mmHg 91%
    04:00 0°C° 0 mm 4 m/s 766 mmHg 91%
    05:00 0°C° 0 mm 4 m/s 765 mmHg 92%
    06:00 0°C° 0 mm 4 m/s 765 mmHg 93%
    07:00 +1°C° 0 mm 4 m/s 765 mmHg 91%
    08:00 +1°C° 0 mm 4 m/s 765 mmHg 90%
    09:00 +3°C° 0 mm 4 m/s 766 mmHg 88%
    10:00 +3°C° 0 mm 5 m/s 765 mmHg 85%
    11:00 +3°C° 0 mm 5 m/s 765 mmHg 82%
    12:00 +5°C° 0 mm 5 m/s 765 mmHg 78%
    13:00 +5°C° 0 mm 5 m/s 765 mmHg 77%
    14:00 +5°C° 0 mm 5 m/s 765 mmHg 76%
    15:00 +5°C° 0 mm 5 m/s 764 mmHg 75%
    16:00 +3°C° 0 mm 5 m/s 764 mmHg 78%
    17:00 +3°C° 0 mm 4 m/s 764 mmHg 82%
    18:00 +1°C° 0 mm 4 m/s 764 mmHg 85%
    19:00 +1°C° 0 mm 4 m/s 764 mmHg 86%
    20:00 0°C° 0 mm 4 m/s 764 mmHg 87%
    21:00 0°C° 0 mm 4 m/s 764 mmHg 88%
    22:00 0°C° 0 mm 4 m/s 764 mmHg 89%
    23:00 -1°C° 0 mm 4 m/s 765 mmHg 89%
    Arată mai mult